Location: Ash Swamp
(41.5170°N, 74.6157°W)
Time: 17:24:53
(UTC+00:00)

SPOT 1/Viking Rocket - Pass Details

Date: 14 July 2020
Orbit: 778 x 793 km, 98.5° (Epoch: 04 August)

Event Time Altitude Azimuth Distance (km) Brightness Sun altitude
Exits shadow 01:45:49 16° 137° (SE) 1,930 4.9 -11.9°
Maximum altitude 01:49:36 46° 70° (ENE) 1,051 4.0 -12.4°
Drops below altitude 10° 01:54:32 10° 359° (N) 2,354 6.7 -13.1°
Sets 01:56:57 0° 353° (N) 3,289 7.7 -13.4°
